Location: Kuppenheim
(48.8299°N, 8.2568°E)
Time: 15:16:15
(UTC+00:00)

Cosmos 1437 Rocket - Pass Details

Date: 20 June 2021
Orbit: 500 x 566 km, 81.2° (Epoch: 05 August)

Event Time Altitude Azimuth Distance (km) Brightness Sun altitude
Rises 01:13:40 0° 338° (NNW) 2,681 7.0 -14.0°
Reaches altitude 10° 01:16:02 10° 327° (NNW) 1,773 5.8 -13.9°
Maximum altitude 01:19:23 28° 268° (W) 999 3.9 -13.6°
Enters shadow 01:20:55 21° 230° (SW) 1,196 4.0 -13.5°
